Springfield, CO

3:57 AM MDT on September 23, 2017 (GMT -0600)
Springfield

Weather History for KSPD - August, 2013

Change the Weather History Date:

Saturday, August 24, 2013

  Actual Average Record
Temperature  
Mean Temperature 79 °F -  
Max Temperature 93 °F 87 °F 101 °F (2011)
Min Temperature 64 °F 59 °F 51 °F (2015)
Degree Days  
Heating Degree Days 0 0  
Month to date heating degree days 1 0  
Since 1 June heating degree days 20 23  
Since 1 July heating degree days 1 2  
Cooling Degree Days 14 8  
Month to date cooling degree days 229 237  
Year to date cooling degree days 1056 848  
Since 1 June cooling degree days 939 794  
Growing Degree Days 28 (Base 50)    
Moisture  
Dew Point 52 °F    
Average Humidity 45    
Maximum Humidity 67    
Minimum Humidity 23    
Precipitation  
Precipitation 0.00 in 0.09 in 0.52 in (2012)
Month to date precipitation 2.29 2.34  
Year to date precipitation 9.74  
Sea Level Pressure  
Sea Level Pressure 29.91 in    
Wind  
Wind Speed 18 mph (SSW)    
Max Wind Speed 28 mph    
Max Gust Speed 40 mph    
T = Trace of Precipitation, MM = Missing Value Source: NWS Daily Summary

Daily Weather History Graph

Daily Weather History Graph

Search for Another Location

Airport or City:

Trip Planner

Search our weather history database for the weather conditions in past years. The results will help you decide how hot, cold, wet, or windy it might be!

Date:

Astronomy

Aug. 24, 2013 Rise Set
Actual Time 6:14 AM MDT 7:30 PM MDT
Civil Twilight 5:47 AM MDT 7:57 PM MDT
Nautical Twilight 5:15 AM MDT 8:29 PM MDT
Astronomical Twilight 4:41 AM MDT 9:03 PM MDT
Moon 9:32 PM MDT (8/24) 10:09 AM MDT (8/24)
Length of Visible Light 14h 09m
Length of Day
13h 15m
Waning Gibbous, 84% of the Moon is Illuminated
Aug 24
Waning Gibbous
Aug 28
Last Quarter
Sep 5
New
Sep 12
First Quarter
Sep 19
Full

Hourly Weather History & Observations

Time (MDT) Temp. Dew Point Humidity Pressure Visibility Wind Dir Wind Speed Gust Speed Precip Events Conditions
12:56 AM 70.0 °F 55.0 °F 59% 29.88 in - South 11.5 mph - N/A   Unknown
1:56 AM 70.0 °F 54.0 °F 57% 29.88 in - South 11.5 mph - N/A   Unknown
2:56 AM 66.0 °F 53.1 °F 63% 29.88 in - South 11.5 mph - N/A   Unknown
3:56 AM 64.9 °F 53.1 °F 65% 29.88 in - South 12.7 mph - N/A   Unknown
4:56 AM 64.9 °F 52.0 °F 63% 29.89 in - South 10.4 mph - N/A   Unknown
5:56 AM 66.0 °F 53.1 °F 63% 29.90 in - South 17.3 mph - N/A   Unknown
6:56 AM 66.9 °F 53.1 °F 61% 29.93 in - South 17.3 mph - N/A   Unknown
7:56 AM 73.0 °F 55.0 °F 53% 29.93 in - SSW 17.3 mph 23.0 mph N/A   Unknown
8:56 AM 79.0 °F 54.0 °F 42% 29.93 in - SW 20.7 mph 28.8 mph N/A   Unknown
9:56 AM 84.0 °F 52.0 °F 33% 29.93 in - SSW 18.4 mph 31.1 mph N/A   Unknown
10:56 AM 87.1 °F 48.9 °F 27% 29.93 in - SW 24.2 mph 34.5 mph N/A   Unknown
11:56 AM 90.0 °F 48.9 °F 24% 29.91 in - SSW 19.6 mph 32.2 mph N/A   Unknown
12:56 PM 91.0 °F 48.9 °F 23% 29.91 in - SSW 23.0 mph 34.5 mph N/A   Unknown
1:56 PM 91.9 °F 48.9 °F 23% 29.90 in - SSW 24.2 mph 29.9 mph N/A   Unknown
2:56 PM 93.0 °F 51.1 °F 24% 29.88 in - SSW 16.1 mph 32.2 mph N/A   Unknown
3:56 PM 91.9 °F 48.9 °F 23% 29.87 in - SW 19.6 mph 29.9 mph N/A   Unknown
4:56 PM 91.0 °F 48.9 °F 23% 29.88 in - SSW 24.2 mph 29.9 mph N/A   Unknown
5:56 PM 89.1 °F 48.9 °F 25% 29.87 in - SSW 18.4 mph 26.5 mph N/A   Unknown
6:56 PM 84.9 °F 51.1 °F 31% 29.89 in - South 19.6 mph - N/A   Unknown
7:56 PM 80.1 °F 52.0 °F 38% 29.91 in - South 12.7 mph - N/A   Unknown
8:56 PM 79.0 °F 53.1 °F 40% 29.93 in - South 15.0 mph - N/A   Unknown
9:56 PM 77.0 °F 54.0 °F 45% 29.94 in - South 15.0 mph - N/A   Unknown
10:56 PM 75.9 °F 55.9 °F 50% 29.96 in - South 17.3 mph - N/A   Unknown
11:56 PM 75.0 °F 55.9 °F 51% 29.97 in - South 17.3 mph - N/A   Unknown